This is the latest recevied weather packets stored in our database for station/object OK1KZE-6. If no packets are shown the sender has not sent any weather packets the latest 10 day(s).
| Time | Temp. | Humidity | Pressure | Rain* | Wind** | Luminosity | Snow |
|---|---|---|---|---|---|---|---|
| 1777890608 | -1.11° C | 100% | 1016.9 hPa | - | - | - | - |
| 1777890307 | -1.11° C | 100% | 1017.1 hPa | - | - | - | - |
| 1777890007 | 18.89° C | 48% | 1017 hPa | - | - | - | - |
| 1777889707 | 18.89° C | 48% | 1017.2 hPa | - | - | - | - |
| 1777889409 | 18.89° C | 48% | 1017.2 hPa | - | - | - | - |
| 1777889109 | 18.89° C | 47% | 1017.1 hPa | - | - | - | - |
| 1777888808 | 18.33° C | 48% | 1017.3 hPa | - | - | - | - |
| 1777888507 | 18.33° C | 47% | 1017.2 hPa | - | - | - | - |
| 1777887907 | 18.33° C | 48% | 1017.3 hPa | - | - | - | - |
| 1777887607 | 18.33° C | 48% | 1017.2 hPa | - | - | - | - |
| 1777887309 | 17.78° C | 48% | 1017.3 hPa | - | - | - | - |
| 1777887008 | 18.33° C | 47% | 1017.2 hPa | - | - | - | - |
| 1777886708 | 18.33° C | 49% | 1017.1 hPa | - | - | - | - |
| 1777886407 | 18.33° C | 49% | 1017.3 hPa | - | - | - | - |
| 1777886108 | 17.78° C | 49% | 1017.1 hPa | - | - | - | - |
| 1777885808 | 17.78° C | 49% | 1017.1 hPa | - | - | - | - |
| 1777885508 | 17.78° C | 49% | 1017.1 hPa | - | - | - | - |
| 1777885207 | 17.78° C | 50% | 1017 hPa | - | - | - | - |
| 1777884908 | 17.78° C | 50% | 1017 hPa | - | - | - | - |
| 1777884609 | 17.22° C | 49% | 1016.6 hPa | - | - | - | - |
| 1777884308 | 17.22° C | 49% | 1016.7 hPa | - | - | - | - |
| 1777884007 | 17.22° C | 52% | 1016.4 hPa | - | - | - | - |
| 1777883708 | 16.67° C | 51% | 1016.6 hPa | - | - | - | - |
| 1777883407 | 16.67° C | 53% | 1016.7 hPa | - | - | - | - |
| 1777883107 | 16.67° C | 53% | 1016.8 hPa | - | - | - | - |
* Rain since midnight (hover to see other rain measurements)
** Current wind speed in m/s (hover to see current wind gust speed)